Weather History for Wilmington, OH

Change the Weather History Date:

Monday, December 16, 2013

  Actual Average (KDAY) Record (KDAY)
Temperature  
Mean Temperature 27 °F 31 °F  
Max Temperature 32 °F 38 °F 65 °F (1933)
Min Temperature 24 °F 24 °F -15 °F (1951)
Degree Days  
Heating Degree Days 38 34  
Month to date heating degree days 508  
Since 1 July heating degree days 1619  
Cooling Degree Days 0 0  
Month to date cooling degree days 0  
Year to date cooling degree days 891  
Moisture  
Dew Point 24 °F    
Average Humidity 90    
Maximum Humidity 100    
Minimum Humidity 78    
Precipitation  
Precipitation 0.12 in 0.10 in 1.01 in (1996)
Month to date precipitation 1.62  
Year to date precipitation 39.55  
Snow  
Snow 0.00 in 0.10 in 1.90 in (2010)
Month to date snowfall 1.8  
Since 1 July snowfall 2.8  
Snow Depth -    
Sea Level Pressure  
Sea Level Pressure 30.11 in    
Wind  
Wind Speed 8 mph (SSE)    
Max Wind Speed 13 mph    
Max Gust Speed -    
Visibility 3 miles    
Events Snow    
T = Trace of Precipitation, MM = Missing Value Source: NWS Daily Summary

Daily Weather History Graph

Daily Weather History Graph

Search for Another Location

Airport:

Trip Planner

Search our weather history database for the weather conditions in past years. The results will help you decide how hot, cold, wet, or windy it might be!

Date:

Astronomy

Dec. 16, 2013 Rise Set
Actual Time 7:49 AM EST 5:13 PM EST
Civil Twilight 7:18 AM EST 5:43 PM EST
Nautical Twilight 6:45 AM EST 6:17 PM EST
Astronomical Twilight 6:12 AM EST 6:49 PM EST
Moon 5:02 PM EST (12/16) 6:56 AM EST (12/16)
Length of Visible Light 10h 24m
Length of Day
9h 24m
Full, 100% of the Moon is Illuminated
Dec 16
Full
Dec 17
Full
Dec 25
Last Quarter
Jan 1
New
Jan 7
First Quarter

Hourly Weather History & Observations

Time (EST) Temp. Windchill Dew Point Humidity Pressure Visibility Wind Dir Wind Speed Gust Speed Precip Events Conditions
12:54 AM 26.1 °F 15.0 °F 19.9 °F 78% 30.17 in 7.0 mi West 12.7 mph - N/A   Overcast
1:10 AM 26.6 °F 15.7 °F 21.2 °F 80% 30.07 in 5.0 mi WSW 12.7 mph - N/A   Haze
1:54 AM 26.1 °F 16.8 °F 21.9 °F 84% 30.16 in 5.0 mi WSW 9.2 mph - N/A   Overcast
2:20 AM 26.6 °F 18.2 °F 21.2 °F 80% 30.07 in 5.0 mi WSW 8.1 mph - N/A   Overcast
2:51 AM 26.6 °F 17.5 °F 23.0 °F 86% 30.08 in 5.0 mi WSW 9.2 mph - 0.00 in Snow Light Snow
2:54 AM 26.1 °F 16.8 °F 23.0 °F 88% 30.18 in 4.0 mi WSW 9.2 mph - 0.00 in Snow Light Snow
3:06 AM 26.6 °F 18.2 °F 23.0 °F 86% 30.08 in 2.5 mi WSW 8.1 mph - 0.00 in Snow Light Snow
3:22 AM 26.6 °F 17.5 °F 23.0 °F 86% 30.08 in 3.0 mi WSW 9.2 mph - 0.00 in Snow Light Snow
3:32 AM 26.6 °F 18.2 °F 24.8 °F 93% 30.08 in 2.5 mi WSW 8.1 mph - 0.00 in Snow Light Snow
3:46 AM 26.6 °F 17.5 °F 24.8 °F 93% 30.08 in 2.5 mi WSW 9.2 mph - 0.00 in Snow Light Snow
3:54 AM 26.1 °F 16.8 °F 24.1 °F 92% 30.17 in 3.0 mi WSW 9.2 mph - 0.00 in Snow Light Snow
4:05 AM 26.6 °F 17.5 °F 24.8 °F 93% 30.08 in 4.0 mi WSW 9.2 mph - 0.00 in   Overcast
4:45 AM 26.6 °F 19.1 °F 24.8 °F 93% 30.07 in 2.5 mi SW 6.9 mph - 0.00 in Snow Light Snow
4:54 AM 26.1 °F 17.6 °F 24.1 °F 92% 30.17 in 2.0 mi SW 8.1 mph - 0.00 in Snow Light Snow
5:05 AM 26.6 °F 20.0 °F 24.8 °F 93% 30.08 in 1.8 mi SW 5.8 mph - 0.01 in Snow Light Snow
5:23 AM 26.6 °F 20.0 °F 24.8 °F 93% 30.07 in 1.2 mi SSW 5.8 mph - 0.01 in Snow Light Snow
5:30 AM 26.6 °F 20.0 °F 24.8 °F 93% 30.07 in 1.2 mi SSW 5.8 mph - 0.01 in Snow Light Snow
5:54 AM 26.1 °F 20.5 °F 25.0 °F 96% 30.17 in 1.0 mi SW 4.6 mph - 0.02 in Snow Light Snow
6:15 AM 26.6 °F 21.2 °F 24.8 °F 93% 30.07 in 1.8 mi SSW 4.6 mph - 0.00 in Snow Light Snow
6:54 AM 26.1 °F 21.9 °F 25.0 °F 96% 30.17 in 1.2 mi SW 3.5 mph - 0.02 in Snow Light Snow
7:04 AM 26.6 °F - 24.8 °F 93% 30.08 in 0.8 mi Calm Calm - 0.00 in Snow Light Snow
7:21 AM 26.6 °F 22.6 °F 24.8 °F 93% 30.08 in 1.0 mi SW 3.5 mph - 0.01 in Snow Light Snow
7:31 AM 26.6 °F 22.6 °F 26.6 °F 100% 30.09 in 0.8 mi SW 3.5 mph - 0.01 in Snow Light Snow
7:54 AM 27.0 °F - 26.1 °F 96% 30.18 in 1.0 mi Calm Calm - 0.03 in Snow Light Snow
8:03 AM 26.6 °F - 26.6 °F 100% 30.09 in 0.8 mi Calm Calm - 0.00 in Snow Light Snow
8:54 AM 26.1 °F 19.4 °F 24.1 °F 92% 30.19 in 1.0 mi NE 5.8 mph - 0.02 in Snow Light Snow
9:20 AM 24.8 °F 16.9 °F 23.0 °F 93% 30.10 in 0.8 mi ENE 6.9 mph - 0.01 in Snow Light Snow
9:34 AM 24.8 °F 19.1 °F 21.2 °F 86% 30.10 in 1.0 mi ENE 4.6 mph - 0.02 in Snow Light Snow
9:39 AM 24.8 °F 16.1 °F 21.2 °F 86% 30.10 in 0.8 mi ENE 8.1 mph - 0.02 in Snow Light Snow
9:54 AM 24.1 °F 18.2 °F 21.9 °F 91% 30.20 in 0.8 mi ENE 4.6 mph - 0.02 in Snow Light Snow
10:01 AM 24.8 °F 17.9 °F 21.2 °F 86% 30.11 in 1.5 mi ENE 5.8 mph - 0.00 in Snow Light Snow
10:17 AM 24.8 °F 17.9 °F 21.2 °F 86% 30.11 in 2.0 mi ENE 5.8 mph - 0.01 in Snow Light Snow
10:31 AM 24.8 °F 16.1 °F 21.2 °F 86% 30.11 in 2.5 mi ENE 8.1 mph - 0.01 in Snow Light Snow
10:54 AM 24.1 °F 16.0 °F 21.9 °F 91% 30.20 in 2.5 mi ENE 6.9 mph - 0.01 in Snow Light Snow
11:15 AM 24.8 °F 16.9 °F 21.2 °F 86% 30.10 in 4.0 mi East 6.9 mph - 0.00 in   Overcast
11:54 AM 25.0 °F 20.7 °F 21.9 °F 88% 30.18 in 4.0 mi Variable 3.5 mph - 0.00 in   Overcast
12:54 PM 25.0 °F 17.1 °F 21.9 °F 88% 30.15 in 4.0 mi East 6.9 mph - N/A   Overcast
1:54 PM 25.0 °F 19.3 °F 23.0 °F 92% 30.12 in 4.0 mi East 4.6 mph - N/A   Overcast
2:54 PM 25.0 °F 16.3 °F 21.9 °F 88% 30.11 in 3.0 mi East 8.1 mph - N/A   Overcast
3:54 PM 26.1 °F 18.4 °F 23.0 °F 88% 30.13 in 3.0 mi ENE 6.9 mph - N/A   Overcast
4:54 PM 25.0 °F 18.1 °F 23.0 °F 92% 30.13 in 3.0 mi East 5.8 mph - N/A   Overcast
5:01 PM 24.8 °F 17.9 °F 23.0 °F 93% 30.04 in 2.5 mi East 5.8 mph - N/A   Overcast
5:26 PM 24.8 °F 19.1 °F 23.0 °F 93% 30.03 in 3.0 mi East 4.6 mph - N/A   Overcast
5:54 PM 25.0 °F 20.7 °F 23.0 °F 92% 30.14 in 4.0 mi East 3.5 mph - N/A   Overcast
6:54 PM 26.1 °F 20.5 °F 24.1 °F 92% 30.13 in 4.0 mi ESE 4.6 mph - N/A   Overcast
7:13 PM 26.6 °F 21.2 °F 24.8 °F 93% 30.03 in 4.0 mi ESE 4.6 mph - N/A   Overcast
7:54 PM 27.0 °F 23.0 °F 25.0 °F 92% 30.12 in 4.0 mi ESE 3.5 mph - N/A   Overcast
8:54 PM 28.0 °F 22.8 °F 26.1 °F 92% 30.10 in 3.0 mi SE 4.6 mph - N/A   Overcast
9:54 PM 30.9 °F 23.5 °F 28.9 °F 92% 30.07 in 5.0 mi South 8.1 mph - N/A   Mostly Cloudy
10:05 PM 30.2 °F 23.4 °F 28.4 °F 93% 29.96 in 5.0 mi SSE 6.9 mph - N/A   Mostly Cloudy
10:54 PM 30.0 °F 22.4 °F 28.0 °F 92% 30.08 in 5.0 mi South 8.1 mph - N/A   Partly Cloudy
11:54 PM 32.0 °F 24.2 °F 28.9 °F 88% 30.06 in 6.0 mi SSW 9.2 mph - N/A   Clear